SCP
-0 0 0 0 0 0 0 0 0 0 0 0 0 0 0 0 0 0 0 0 0 0 0 0 0 0 0 0 0 0 0 0
-0 0 0 0 0 0 0 0 0 0 0 0 0 0 0 0 0 0 0 0 0 0 0 0 0 0 0 0 0 0 0 0
0 0 0 0 0 0 0 0 0 0 0 0 0 0 0 0 0 0 0 0 0 0 0 0 0 0 0 0 0 0 0 0
-0 0 0 0 0 0 0 0 0 0 0 0 0 0 0 0 0 0 0 0 0 0 0 0 0 0 0 0 0 0 0 0
-0 -0 -0 0 0 0 0 0 0 0 0 0 0 0 0 0 0 0 0 0 0 0 0 0 0 0 0 0 0 0 0 0
-0 -0 -0 -0 0 0 0 0 0 0 0 0 0 0 0 0 0 0 0 0 0 0 0 0 0 0 0 0 0 0 0 0
0 0 0 0 0 0 0 0 0 0 0 0 0 0 0 0 0 0 0 0 0 0 0 0 0 0 0 0 0 0 0 0
0 0 0 0 0 0 0 0 0 0 0 0 0 0 0 0 0 0 0 0 0 0 0 0 0 0 0 0 0 0 0 0
0 0 0 0 0 0 0 0 0 0 0 0 0 0 0 0 0 0 0 0 0 0 0 0 0 0 0 0 0 0 0 0
0 0 0 0 0 0 0 0 0 0 0 0 0 0 0 0 0 0 0 0 0 0 0 0 0 0 0 0 0 0 0 0
0 0 0 0 0 0 0 0 0 0 0 0 0 0 0 0 0 0 0 0 0 0 0 0 0 0 0 0 0 0 0 0
0 0 0 0 0 0 0 0 0 0 0 0 0 0 0 0 0 0 0 0 0 0 0 0 0 0 0 0 0 0 0 0
0 0 0 0 0 0 0 0 0 0 0 0 0 0 0 0 0 0 0 0 0 0 0 0 0 0 0 0 0 0 0 0
0 0 0 0 0 0 0 0 0 0 0 0 0 0 0 0 0 0 0 0 0 0 0 0 0 0 0 0 0 0 0 0
0 0 0 0 0 0 0 0 0 0 0 0 0 0 0 0 0 0 0 0 0 0 0 0 0 0 0 0 0 0 0 0
0 0 0 0 0 0 0 0 0 0 0 0 0 0 0 0 0 0 0 0 0 0 0 0 0 0 0 0 0 0 0 0
0 0 0 0 0 0 0 0 0 0 0 0 0 0 0 0 0 0 0 0 0 0 0 0 0 0 0 0 0 0 0 0
0 0 0 0 0 0 0 0 0 0 0 0 0 0 0 0 0 0 0 0 0 0 0 0 0 0 0 0 0 0 0 0
-0 0 0 0 0 0 0 0 0 0 0 0 0 0 0 0 0 0 0 0 0 0 0 0 0 0 0 0 0 0 0 0
Wind_Speed_500mb
53 56 51 40 31 22 17 26 32 35 33 32 27 22 19 14 8 5 5 2 2 4 9 13 16 20 23 28 32 35 38 39
58 62 56 47 40 32 25 28 35 37 39 37 31 26 21 16 7 3 5 5 5 8 12 17 20 24 27 32 35 37 39 43
70 71 66 59 47 38 33 28 31 34 34 34 30 26 20 14 9 7 9 10 10 11 18 22 24 25 28 35 38 42 44 45
78 78 74 66 60 49 39 30 27 31 35 37 39 33 27 22 17 13 12 17 14 14 22 24 25 26 34 39 41 44 43 40
78 82 80 76 68 54 43 34 28 28 38 39 41 38 34 21 15 16 19 17 16 20 22 24 27 32 38 41 43 44 44 42
83 87 84 79 71 62 49 38 31 29 37 40 40 36 27 27 26 25 27 22 22 24 25 27 31 36 40 42 41 42 44 38
78 80 86 82 75 66 54 44 35 31 34 39 42 32 25 31 32 30 32 24 25 26 25 29 31 36 40 41 45 45 41 39
72 80 86 84 80 70 58 48 40 33 35 35 38 29 24 26 29 28 26 27 28 25 21 24 29 35 41 43 41 40 37 32
67 75 76 78 76 70 59 50 41 34 33 31 39 25 24 28 23 23 25 29 26 26 27 29 32 39 38 35 36 38 39 38
33 49 57 62 69 67 59 51 42 34 35 36 38 37 32 26 26 27 29 32 35 31 26 32 42 36 35 39 43 44 44 43
23 28 37 43 51 61 63 54 43 38 44 44 36 33 28 30 33 35 34 32 23 25 29 28 31 37 41 44 46 45 41 42
18 16 17 26 37 54 64 59 50 44 44 45 40 33 30 33 33 28 18 17 22 19 25 31 37 41 44 45 43 38 42 46
16 13 16 20 34 50 59 58 54 47 44 42 39 36 33 27 20 16 13 15 18 24 31 38 41 42 40 38 38 41 45 46
17 14 15 21 33 44 51 53 54 47 46 45 40 33 24 16 7 9 12 17 24 32 38 40 38 36 35 37 39 42 45 46
27 29 30 32 38 47 55 58 55 52 49 42 34 24 14 7 8 12 19 26 33 37 36 33 32 33 36 37 38 43 46 47
35 39 42 44 51 60 62 59 53 47 41 32 22 12 5 8 14 20 27 32 32 29 28 29 31 32 34 37 41 44 46 41
44 47 53 57 60 59 55 50 43 34 27 18 11 5 6 12 19 25 28 27 25 24 25 26 27 32 35 37 39 42 39 43
54 54 55 56 54 50 46 41 33 24 18 13 5 3 11 17 21 23 23 22 22 22 24 24 28 31 35 36 38 40 43 39
58 56 55 52 48 43 37 31 25 19 13 6 3 9 15 17 18 18 18 19 21 23 26 27 29 32 38 43 41 44 40 34
Wind_Direction_500mb
209 206 207 211 207 206 206 200 194 183 180 175 173 173 172 167 156 183 184 173 44 16 12 9 3 357 359 3 3 360 358 356
209 208 209 209 210 210 210 201 193 195 189 184 185 189 188 187 184 265 248 252 289 319 335 338 336 339 349 355 352 350 348 348
205 209 210 214 216 213 211 207 207 200 197 192 199 198 201 204 224 280 273 279 280 305 320 323 330 335 344 346 347 350 350 348
207 211 215 215 214 216 215 212 211 206 196 195 196 202 207 213 228 248 279 286 275 305 317 319 323 330 339 344 344 344 347 350
216 213 217 219 219 215 215 215 212 208 204 204 205 210 213 219 243 265 271 272 278 307 316 318 321 328 335 339 341 341 342 342
219 220 223 220 218 216 215 215 214 212 210 209 206 214 234 244 246 256 265 264 283 304 309 315 320 325 330 334 339 339 336 340
225 227 223 221 218 216 215 213 215 215 212 210 212 223 232 239 243 255 253 258 284 292 301 306 315 320 323 329 329 328 330 325
227 228 225 221 217 216 215 214 215 216 210 209 214 228 230 235 257 266 249 272 271 272 286 295 303 319 324 324 324 325 322 317
221 226 225 224 219 216 214 217 215 212 208 211 217 223 231 245 252 241 237 253 257 262 270 288 308 320 321 321 323 322 320 317
207 222 228 228 222 216 215 217 215 210 208 214 220 224 236 239 229 224 241 243 242 243 279 303 309 311 314 318 318 318 319 318
159 200 219 227 226 217 214 214 216 211 212 216 220 220 218 212 215 220 216 221 233 282 299 300 304 314 319 321 323 325 325 327
143 167 195 216 216 216 212 211 212 212 212 214 218 211 201 199 201 203 212 253 287 297 301 312 319 323 325 328 332 336 337 337
160 187 198 199 202 206 208 206 204 205 204 203 192 185 185 193 204 222 266 313 304 312 317 322 326 328 333 338 340 340 341 341
142 158 166 172 178 188 191 191 190 185 187 184 179 176 182 190 224 311 321 312 315 318 322 324 329 338 342 342 341 340 339 339
144 150 151 156 160 164 166 165 167 167 171 172 171 173 192 242 306 310 308 313 317 321 328 338 344 343 339 338 337 336 337 334
148 149 148 150 150 149 149 150 155 161 166 169 174 193 243 298 304 309 318 319 325 335 341 342 342 338 338 337 337 337 337 340
151 147 145 146 147 147 148 149 153 162 168 172 174 194 281 307 317 320 321 327 336 342 344 345 340 336 334 334 339 342 346 342
160 157 155 154 154 156 156 156 159 165 168 162 166 314 315 313 321 323 328 339 346 348 346 341 336 333 333 342 349 349 346 345
169 166 162 160 160 160 161 161 162 163 160 167 260 301 314 320 323 336 347 350 350 348 344 338 337 343 343 344 347 346 346 347
Wind_Speed_850mb
53 56 51 40 31 22 17 26 32 35 33 32 27 22 19 14 8 5 5 2 2 4 9 13 16 20 23 28 32 35 38 39
58 62 56 47 40 32 25 28 35 37 39 37 31 26 21 16 7 3 5 5 5 8 12 17 20 24 27 32 35 37 39 43
70 71 66 59 47 38 33 28 31 34 34 34 30 26 20 14 9 7 9 10 10 11 18 22 24 25 28 35 38 42 44 45
78 78 74 66 60 49 39 30 27 31 35 37 39 33 27 22 17 13 12 17 14 14 22 24 25 26 34 39 41 44 43 40
78 82 80 76 68 54 43 34 28 28 38 39 41 38 34 21 15 16 19 17 16 20 22 24 27 32 38 41 43 44 44 42
83 87 84 79 71 62 49 38 31 29 37 40 40 36 27 27 26 25 27 22 22 24 25 27 31 36 40 42 41 42 44 38
78 80 86 82 75 66 54 44 35 31 34 39 42 32 25 31 32 30 32 24 25 26 25 29 31 36 40 41 45 45 41 39
72 80 86 84 80 70 58 48 40 33 35 35 38 29 24 26 29 28 26 27 28 25 21 24 29 35 41 43 41 40 37 32
67 75 76 78 76 70 59 50 41 34 33 31 39 25 24 28 23 23 25 29 26 26 27 29 32 39 38 35 36 38 39 38
33 49 57 62 69 67 59 51 42 34 35 36 38 37 32 26 26 27 29 32 35 31 26 32 42 36 35 39 43 44 44 43
23 28 37 43 51 61 63 54 43 38 44 44 36 33 28 30 33 35 34 32 23 25 29 28 31 37 41 44 46 45 41 42
18 16 17 26 37 54 64 59 50 44 44 45 40 33 30 33 33 28 18 17 22 19 25 31 37 41 44 45 43 38 42 46
16 13 16 20 34 50 59 58 54 47 44 42 39 36 33 27 20 16 13 15 18 24 31 38 41 42 40 38 38 41 45 46
17 14 15 21 33 44 51 53 54 47 46 45 40 33 24 16 7 9 12 17 24 32 38 40 38 36 35 37 39 42 45 46
27 29 30 32 38 47 55 58 55 52 49 42 34 24 14 7 8 12 19 26 33 37 36 33 32 33 36 37 38 43 46 47
35 39 42 44 51 60 62 59 53 47 41 32 22 12 5 8 14 20 27 32 32 29 28 29 31 32 34 37 41 44 46 41
44 47 53 57 60 59 55 50 43 34 27 18 11 5 6 12 19 25 28 27 25 24 25 26 27 32 35 37 39 42 39 43
54 54 55 56 54 50 46 41 33 24 18 13 5 3 11 17 21 23 23 22 22 22 24 24 28 31 35 36 38 40 43 39
58 56 55 52 48 43 37 31 25 19 13 6 3 9 15 17 18 18 18 19 21 23 26 27 29 32 38 43 41 44 40 34
Wind_Direction_850mb
209 206 207 211 207 206 206 200 194 183 180 175 173 173 172 167 156 183 184 173 44 16 12 9 3 357 359 3 3 360 358 356
209 208 209 209 210 210 210 201 193 195 189 184 185 189 188 187 184 265 248 252 289 319 335 338 336 339 349 355 352 350 348 348
205 209 210 214 216 213 211 207 207 200 197 192 199 198 201 204 224 280 273 279 280 305 320 323 330 335 344 346 347 350 350 348
207 211 215 215 214 216 215 212 211 206 196 195 196 202 207 213 228 248 279 286 275 305 317 319 323 330 339 344 344 344 347 350
216 213 217 219 219 215 215 215 212 208 204 204 205 210 213 219 243 265 271 272 278 307 316 318 321 328 335 339 341 341 342 342
219 220 223 220 218 216 215 215 214 212 210 209 206 214 234 244 246 256 265 264 283 304 309 315 320 325 330 334 339 339 336 340
225 227 223 221 218 216 215 213 215 215 212 210 212 223 232 239 243 255 253 258 284 292 301 306 315 320 323 329 329 328 330 325
227 228 225 221 217 216 215 214 215 216 210 209 214 228 230 235 257 266 249 272 271 272 286 295 303 319 324 324 324 325 322 317
221 226 225 224 219 216 214 217 215 212 208 211 217 223 231 245 252 241 237 253 257 262 270 288 308 320 321 321 323 322 320 317
207 222 228 228 222 216 215 217 215 210 208 214 220 224 236 239 229 224 241 243 242 243 279 303 309 311 314 318 318 318 319 318
159 200 219 227 226 217 214 214 216 211 212 216 220 220 218 212 215 220 216 221 233 282 299 300 304 314 319 321 323 325 325 327
143 167 195 216 216 216 212 211 212 212 212 214 218 211 201 199 201 203 212 253 287 297 301 312 319 323 325 328 332 336 337 337
160 187 198 199 202 206 208 206 204 205 204 203 192 185 185 193 204 222 266 313 304 312 317 322 326 328 333 338 340 340 341 341
142 158 166 172 178 188 191 191 190 185 187 184 179 176 182 190 224 311 321 312 315 318 322 324 329 338 342 342 341 340 339 339
144 150 151 156 160 164 166 165 167 167 171 172 171 173 192 242 306 310 308 313 317 321 328 338 344 343 339 338 337 336 337 334
148 149 148 150 150 149 149 150 155 161 166 169 174 193 243 298 304 309 318 319 325 335 341 342 342 338 338 337 337 337 337 340
151 147 145 146 147 147 148 149 153 162 168 172 174 194 281 307 317 320 321 327 336 342 344 345 340 336 334 334 339 342 346 342
160 157 155 154 154 156 156 156 159 165 168 162 166 314 315 313 321 323 328 339 346 348 346 341 336 333 333 342 349 349 346 345
169 166 162 160 160 160 161 161 162 163 160 167 260 301 314 320 323 336 347 350 350 348 344 338 337 343 343 344 347 346 346 347